Location: Corralito
(10.2667°N, 66.9500°W)
Time: 17:57:04
(UTC+00:00)

BLOCK DM-SL R/B - Pass Details

Date: 23 March 2023
Orbit: 879 x 35774 km, 1.5° (Epoch: 09 June)

Event Time Altitude Azimuth Distance (km) Brightness Sun altitude
Rises 22:47:57 0° 255° (WSW) 4,138 8.6 -3.1°
Reaches altitude 10° 22:51:03 10° 244° (WSW) 2,687 7.0 -3.9°
Maximum altitude 22:55:36 35° 176° (S) 1,405 4.3 -5.0°
Drops below altitude 10° 23:01:23 10° 108° (ESE) 3,411 5.7 -6.4°
Enters shadow 23:02:46 - 105° (ESE) 4,050 6.1 -6.8°
